EW0122 Weather Reports


time (UTC)temp
C
wind
direction
speed
KPH
gust
KPH
rain 1hr
cm
rain 24hr
cm
rain mn
cm
humidity
%
barometer
mb
20260506222015 8 298 1.6 8.0 0.00 1.63 1.55 94 1006.9
20260506221529 8 328 1.6 14.5 0.00 1.63 1.55 94 1006.5
20260506221016 8 9 4.8 14.5 0.00 1.63 1.55 94 1006.4
20260506220512 8 301 4.8 17.7 0.00 1.63 1.55 94 1006.3
20260506220028 8 330 6.4 17.7 0.00 1.63 1.55 94 1006.1
20260506215509 8 333 4.8 11.3 0.20 1.63 1.55 94 1006.0
20260506215009 8 193 4.8 14.5 0.36 1.63 1.55 93 1005.9
20260506214538 9 331 4.8 14.5 0.38 1.63 1.55 93 1005.8
20260506214010 9 340 6.4 16.1 0.38 1.63 1.55 93 1005.7
20260506213509 10 302 6.4 17.7 0.38 1.63 1.55 92 1005.7
20260506213030 10 309 6.4 17.7 0.38 1.63 1.55 92 1005.6
20260506212515 11 288 8.0 16.1 0.38 1.63 1.55 92 1005.6
20260506212013 11 343 6.4 16.1 0.38 1.63 1.55 92 1005.3
20260506211529 12 356 6.4 16.1 0.38 1.63 1.55 92 1005.1
20260506211012 12 326 6.4 24.1 0.38 1.63 1.55 92 1004.9
20260506210512 13 302 8.0 24.1 0.38 1.63 1.55 92 1004.7
20260506210030 13 304 4.8 16.1 0.38 1.63 1.55 91 1004.6
20260506205517 15 348 6.4 12.9 0.15 1.40 1.32 91 1004.7
20260506205010 16 309 1.6 6.4 0.00 1.24 1.17 94 1004.3
20260506204534 16 0 0.0 8.0 0.00 1.24 1.17 94 1004.0
20260506204014 16 0 0.0 9.7 0.00 1.24 1.17 94 1003.9
20260506203516 16 126 1.6 9.7 0.00 1.24 1.17 94 1004.0
20260506203034 16 106 3.2 9.7 0.03 1.24 1.17 94 1004.2
20260506202512 16 163 0.0 11.3 0.03 1.24 1.17 94 1004.2
20260506202011 16 0 0.0 11.3 0.03 1.24 1.17 94 1004.0
20260506201530 16 170 1.6 9.7 0.03 1.24 1.17 94 1004.2
20260506201010 16 148 1.6 9.7 0.03 1.24 1.17 94 1004.1
20260506200510 16 162 1.6 9.7 0.03 1.24 1.17 94 1004.2
20260506200031 16 130 1.6 6.4 0.05 1.24 1.17 94 1004.2
20260506195512 16 147 0.0 4.8 0.05 1.24 1.17 94 1004.3
20260506195010 16 215 1.6 4.8 0.05 1.24 1.17 94 1004.4
20260506194530 16 105 0.0 9.7 0.08 1.24 1.17 94 1004.3
20260506194009 16 108 1.6 9.7 0.10 1.24 1.17 94 1004.4
20260506193512 16 186 1.6 8.0 0.13 1.24 1.17 94 1004.3
20260506193028 16 0 0.0 4.8 0.15 1.22 1.14 94 1004.4
20260506192509 16 0 0.0 6.4 0.15 1.22 1.14 94 1004.5
20260506192014 16 0 0.0 6.4 0.18 1.22 1.14 94 1004.6
20260506191529 16 214 1.6 4.8 0.20 1.22 1.14 94 1004.6
20260506191013 16 0 0.0 3.2 0.20 1.22 1.14 94 1004.6
20260506190511 16 150 0.0 3.2 0.23 1.22 1.14 94 1004.6
20260506190037 16 98 0.0 4.8 0.20 1.19 1.12 94 1004.6
20260506185511 16 143 0.0 4.8 0.20 1.19 1.12 94 1004.5
20260506185012 16 0 1.6 12.9 0.20 1.17 1.09 94 1004.7
20260506184529 16 178 1.6 12.9 0.23 1.17 1.09 94 1004.7
20260506184011 16 109 1.6 6.4 0.23 1.14 1.07 94 1004.6
20260506183510 16 133 1.6 9.7 0.20 1.12 1.04 94 1004.7
20260506183029 16 215 1.6 9.7 0.18 1.07 0.99 94 1004.7
20260506182511 16 231 0.0 8.0 0.20 1.07 0.99 94 1004.8
20260506182015 16 218 1.6 8.0 0.18 1.04 0.97 94 1004.8
20260506181530 16 205 0.0 4.8 0.18 1.02 0.94 94 1004.8
20260506181012 16 208 0.0 4.8 0.18 1.02 0.94 94 1004.8
20260506180510 16 195 1.6 11.3 0.18 0.99 0.91 94 1004.9
20260506180031 16 0 1.6 12.9 0.18 0.99 0.91 94 1004.9
20260506175511 16 183 1.6 12.9 0.18 0.97 0.89 94 1004.9
20260506175011 16 157 3.2 12.9 0.18 0.97 0.89 94 1004.9
20260506174530 16 0 1.6 4.8 0.15 0.94 0.86 94 1004.9
20260506174010 16 208 0.0 3.2 0.15 0.91 0.84 94 1005.0
20260506173513 16 0 0.0 4.8 0.15 0.91 0.84 94 1005.2
20260506173037 16 0 0.0 12.9 0.15 0.89 0.81 94 1005.3
20260506172511 15 217 0.0 12.9 0.15 0.86 0.79 94 1005.2
20260506172010 15 205 3.2 12.9 0.18 0.86 0.79 94 1005.1
20260506171529 15 0 1.6 9.7 0.18 0.84 0.76 94 1005.1
20260506171010 15 165 3.2 9.7 0.18 0.84 0.76 94 1005.0
20260506170516 15 145 1.6 9.7 0.18 0.81 0.74 94 1005.1
20260506170029 15 108 1.6 6.4 0.20 0.81 0.74 94 1005.3
20260506165510 15 127 1.6 6.4 0.18 0.79 0.71 94 1005.3
20260506165010 15 150 1.6 4.8 0.20 0.79 0.71 94 1005.4
20260506164528 15 0 0.0 8.0 0.20 0.76 0.69 94 1005.5
20260506164009 15 165 1.6 8.0 0.20 0.76 0.69 94 1005.4
20260506163511 15 225 1.6 8.0 0.23 0.76 0.69 94 1005.5
20260506163045 14 217 1.6 6.4 0.20 0.74 0.66 94 1005.5
20260506162512 14 136 1.6 6.4 0.20 0.71 0.64 94 1005.6
20260506162017 14 152 1.6 6.4 0.18 0.69 0.61 94 1005.7
20260506161530 13 183 0.0 3.2 0.18 0.66 0.58 93 1005.6
20260506161014 13 0 0.0 1.6 0.18 0.66 0.58 93 1005.6
20260506160512 13 330 0.0 1.6 0.18 0.64 0.56 93 1005.8
20260506160031 13 0 0.0 1.6 0.18 0.61 0.53 93 1006.0
20260506155512 13 0 0.0 1.6 0.18 0.61 0.53 93 1006.0
20260506155014 13 0 0.0 1.6 0.18 0.58 0.51 93 1006.2
20260506154537 13 0 0.0 1.6 0.18 0.56 0.48 93 1006.3
20260506154014 13 330 0.0 0.0 0.18 0.56 0.48 93 1006.4
20260506153516 13 0 0.0 0.0 0.18 0.53 0.46 93 1006.5
20260506153032 13 0 0.0 0.0 0.20 0.53 0.46 93 1006.4
20260506152515 13 0 0.0 0.0 0.20 0.51 0.43 93 1006.4
20260506152016 13 0 0.0 0.0 0.20 0.48 0.41 93 1006.4
20260506151537 13 0 0.0 0.0 0.23 0.48 0.41 93 1006.5
20260506151012 13 0 0.0 0.0 0.23 0.46 0.38 93 1006.4
20260506150518 13 0 0.0 0.0 0.25 0.46 0.38 93 1006.5
20260506150032 13 0 0.0 0.0 0.25 0.43 0.36 93 1006.7
20260506145514 13 0 0.0 0.0 0.25 0.41 0.33 93 1006.7
20260506145013 12 0 0.0 0.0 0.28 0.41 0.33 93 1006.8
20260506144530 12 0 0.0 1.6 0.25 0.38 0.30 93 1006.7
20260506144014 12 0 0.0 1.6 0.23 0.36 0.28 92 1007.0
20260506143513 12 0 0.0 0.0 0.23 0.36 0.28 92 1007.1
20260506143028 12 0 0.0 0.0 0.18 0.30 0.23 92 1007.2
20260506142511 12 0 0.0 1.6 0.20 0.30 0.23 92 1007.3
20260506142013 12 0 0.0 1.6 0.15 0.25 0.18 92 1007.4
20260506141530 12 0 0.0 1.6 0.13 0.23 0.15 92 1007.1
20260506141016 12 0 0.0 1.6 0.13 0.20 0.13 92 1007.2
20260506140514 12 316 0.0 1.6 0.13 0.20 0.13 92 1007.2
20260506140034 12 0 0.0 1.6 0.10 0.18 0.10 92 1007.2
20260506135516 12 0 0.0 1.6 0.08 0.15 0.08 91 1007.2
20260506135020 12 0 0.0 1.6 0.05 0.13 0.05 91 1007.2
20260506134533 12 316 0.0 1.6 0.05 0.13 0.05 91 1007.1
20260506134016 12 314 0.0 1.6 0.05 0.13 0.05 91 1007.0
20260506133515 12 102 0.0 1.6 0.05 0.13 0.05 91 1007.0
20260506133033 12 1 0.0 1.6 0.05 0.13 0.05 91 1006.8
20260506132518 12 0 0.0 1.6 0.03 0.10 0.03 91 1006.8
20260506132011 12 0 0.0 1.6 0.03 0.10 0.03 90 1006.9
20260506131535 12 0 0.0 1.6 0.03 0.10 0.03 90 1006.9
20260506131015 12 314 0.0 1.6 0.00 0.08 0.00 90 1006.9
20260506130517 12 0 0.0 1.6 0.00 0.08 0.00 90 1006.9
20260506130030 12 0 0.0 1.6 0.00 0.08 0.00 90 1007.2
20260506125513 12 0 0.0 1.6 0.00 0.08 0.00 90 1006.9
20260506125011 12 0 0.0 1.6 0.00 0.08 0.00 89 1007.0
20260506124531 12 0 0.0 1.6 0.00 0.08 0.00 89 1007.2
20260506124010 12 0 0.0 1.6 0.00 0.08 0.00 89 1007.0
20260506123518 12 0 0.0 0.0 0.00 0.08 0.00 89 1007.4
20260506123030 12 0 0.0 0.0 0.00 0.08 0.00 89 1007.5
20260506122513 12 0 0.0 0.0 0.00 0.08 0.00 89 1007.6
20260506122013 12 0 0.0 1.6 0.00 0.08 0.00 88 1007.8
20260506121529 12 0 0.0 1.6 0.00 0.08 0.00 88 1007.9
20260506121013 12 0 0.0 1.6 0.00 0.08 0.00 88 1007.7
20260506120511 12 0 0.0 1.6 0.00 0.08 0.00 88 1007.8
20260506120029 12 0 0.0 1.6 0.00 0.08 0.00 88 1007.7
20260506115513 12 297 0.0 1.6 0.00 0.08 0.00 88 1007.8
20260506115013 12 0 0.0 1.6 0.00 0.08 0.00 88 1008.0
20260506114532 12 0 0.0 1.6 0.00 0.08 0.00 88 1007.7
20260506114012 12 140 0.0 1.6 0.00 0.08 0.00 88 1007.4
20260506113512 12 0 0.0 1.6 0.00 0.08 0.00 88 1007.3
20260506113032 12 0 0.0 1.6 0.00 0.08 0.00 88 1007.4
20260506112516 12 139 0.0 1.6 0.00 0.08 0.00 88 1007.2
20260506112013 12 0 0.0 1.6 0.00 0.08 0.00 88 1007.2
20260506111531 12 0 0.0 1.6 0.00 0.08 0.00 88 1007.4
20260506111013 -17 0.0 0.0 0.00 0.08 0.00 1007.0
20260506110514 -17 0.0 0.0 0.00 0.08 0.00 1007.0
20260506110029 -17 0.0 0.0 0.00 0.08 0.00 1007.2
20260506105515 -17 0.0 0.0 0.00 0.08 0.00 1007.5
20260506105013 -17 0.0 0.0 0.00 0.08 0.00 1007.3
20260506104527 -17 0.0 0.0 0.00 0.08 0.00 1007.2
20260506104016 -17 0.0 0.0 0.00 0.08 0.00 1007.3
20260506103514 -17 0.0 0.0 0.00 0.08 0.00 1007.5
20260506103032 -17 0.0 0.0 0.00 0.08 0.00 1007.0
20260506102513 -17 0.0 0.0 0.00 0.08 0.00 1007.0
20260506102011 -17 0.0 0.0 0.00 0.08 0.00 1006.8
20260506101532 -17 0.0 0.0 0.00 0.08 0.00 1007.0
20260506101011 -17 0.0 0.0 0.00 0.08 0.00 1007.1
20260506100514 -17 0.0 0.0 0.00 0.08 0.00 1007.0
20260506100034 -17 0.0 0.0 0.00 0.08 0.00 1006.6
20260506095513 -17 0.0 0.0 0.00 0.08 0.00 1006.6
20260506095018 -17 0.0 0.0 0.00 0.08 0.00 1006.7
20260506094530 -17 0.0 0.0 0.00 0.08 0.00 1006.8
20260506094014 -17 0.0 0.0 0.00 0.08 0.00 1006.8
20260506093516 -17 0.0 0.0 0.00 0.08 0.00 1006.7
20260506093030 -17 0.0 0.0 0.00 0.08 0.00 1006.7
20260506092513 -17 0.0 0.0 0.00 0.08 0.00 1006.7
20260506092013 -17 0.0 0.0 0.00 0.08 0.00 1006.6
20260506091530 -17 0.0 0.0 0.00 0.08 0.00 1006.6
20260506091018 -17 0.0 0.0 0.00 0.08 0.00 1006.9
20260506090510 -17 0.0 0.0 0.00 0.08 0.00 1007.0
20260506090031 -17 0.0 0.0 0.00 0.08 0.00 1006.9
20260506085513 -17 0.0 0.0 0.00 0.08 0.00 1006.9
20260506085014 -17 0.0 0.0 0.00 0.08 0.00 1006.8
20260506084536 -17 0.0 0.0 0.00 0.08 0.00 1006.9
20260506084014 -17 0.0 0.0 0.00 0.08 0.00 1007.1
20260506083513 -17 0.0 0.0 0.00 0.08 0.00 1007.1
20260506083032 -17 0.0 0.0 0.00 0.08 0.00 1007.2
20260506082514 -17 0.0 0.0 0.00 0.08 0.00 1007.4
20260506082011 -17 0.0 0.0 0.00 0.08 0.00 1007.3
20260506081528 -17 0.0 0.0 0.00 0.08 0.00 1007.3
20260506081012 -17 0.0 0.0 0.00 0.08 0.00 1007.2
20260506080514 -17 0.0 0.0 0.00 0.08 0.00 1007.4
20260506073514 -17 0.0 0.0 0.00 0.08 0.00 1007.9
20260506073029 -17 0.0 0.0 0.00 0.08 0.00 1007.9
20260506072512 -17 0.0 0.0 0.00 0.08 0.00 1007.9
20260506072016 -17 0.0 0.0 0.00 0.08 0.00 1007.8
20260506071530 -17 0.0 0.0 0.00 0.08 0.00 1007.9
20260506071012 -17 0.0 0.0 0.00 0.08 0.00 1007.8
20260506070512 -17 0.0 0.0 0.00 0.08 0.00 1007.9
20260506062516 -17 0.0 0.0 0.00 0.08 0.00 1008.3
20260506062013 -17 0.0 0.0 0.00 0.08 0.00 1008.6
20260506061531 13 0.0 0.0 0.00 0.08 0.00 83 1008.5
20260506061013 13 0 0.0 0.0 0.00 0.08 0.00 83 1008.5
20260506060514 14 0 0.0 1.6 0.00 0.08 0.00 84 1008.4
20260506051013 15 0 0.0 1.6 0.00 0.08 0.00 83 1008.7
20260506050513 15 0 0.0 1.6 0.00 0.08 0.00 84 1008.5
20260506045014 15 0 0.0 0.0 0.00 0.08 0.00 84 1008.7
20260506044532 15 0 0.0 0.0 0.00 0.08 0.00 84 1008.7
20260506044013 15 0 0.0 0.0 0.00 0.08 0.00 83 1008.7
20260506043511 15 0 0.0 1.6 0.00 0.08 0.00 83 1008.6
20260506043028 15 0 0.0 1.6 0.00 0.08 0.00 83 1008.4
20260506042511 15 0 0.0 1.6 0.00 0.08 0.00 83 1008.7
20260506042012 15 0 0.0 1.6 0.00 0.08 0.00 83 1008.9
20260506041549 15 0 0.0 1.6 0.00 0.08 0.00 83 1008.5
20260506041012 16 0 0.0 1.6 0.00 0.08 0.00 83 1008.5
20260506040517 16 0 0.0 3.2 0.00 0.08 0.00 83 1008.3
20260506040033 16 0 0.0 4.8 0.00 0.08 0.00 84 1008.0
20260506035516 16 0 0.0 6.4 0.03 0.08 0.08 84 1008.3
20260506035012 16 243 1.6 8.0 0.05 0.08 0.08 84 1008.4
20260506034543 16 277 1.6 9.7 0.05 0.08 0.08 85 1008.2
20260506034016 16 303 1.6 11.3 0.05 0.08 0.08 85 1008.0
20260506033515 16 250 3.2 12.9 0.05 0.08 0.08 86 1008.0
20260506033029 16 243 3.2 12.9 0.05 0.08 0.08 87 1008.0
20260506032511 16 245 3.2 6.4 0.05 0.08 0.08 88 1007.9
20260506032014 16 311 0.0 3.2 0.05 0.08 0.08 89 1007.8
20260506031529 16 297 0.0 1.6 0.05 0.08 0.08 89 1007.8
20260506031012 16 242 0.0 3.2 0.05 0.08 0.08 89 1007.8
20260506030514 16 0 0.0 3.2 0.05 0.08 0.08 88 1007.8
20260506030028 16 0 0.0 3.2 0.05 0.08 0.08 88 1008.1
20260506025516 16 0 0.0 6.4 0.05 0.05 0.05 87 1008.2
20260506025011 16 0 0.0 6.4 0.03 0.03 0.03 87 1008.2
20260506024533 16 0 0.0 1.6 0.03 0.03 0.03 86 1007.7
20260506024014 16 0 0.0 1.6 0.03 0.03 0.03 86 1007.6
20260506023519 16 0 0.0 1.6 0.03 0.03 0.03 86 1007.7
20260506023030 17 0 0.0 1.6 0.03 0.03 0.03 85 1007.6
20260506022511 17 0 0.0 1.6 0.03 0.03 0.03 84 1007.4
20260506022012 17 304 0.0 1.6 0.03 0.03 0.03 83 1007.7
20260506021529 17 0 0.0 1.6 0.03 0.03 0.03 82 1007.5
20260506021014 17 0 0.0 1.6 0.03 0.03 0.03 81 1007.4
20260506020516 17 0 0.0 0.0 0.03 0.03 0.03 80 1007.5
20260506020028 17 0 0.0 0.0 0.03 0.03 0.03 80 1007.5
20260506015512 17 0 0.0 1.6 0.00 0.00 0.00 79 1007.5
20260506015013 17 0 0.0 1.6 0.00 0.00 0.00 77 1007.5
20260506014529 17 0 0.0 1.6 0.00 0.00 0.00 77 1007.4
20260506014014 17 110 0.0 1.6 0.00 0.00 0.00 77 1007.3
20260506013511 17 0 0.0 1.6 0.00 0.00 0.00 77 1007.1
20260506013041 18 0 0.0 1.6 0.00 0.00 0.00 77 1007.1
20260506012513 18 0 0.0 1.6 0.00 0.00 0.00 77 1007.2
20260506012012 18 0 0.0 1.6 0.00 0.00 0.00 76 1007.1
20260506011531 18 0 0.0 1.6 0.00 0.00 0.00 76 1007.0
20260506011011 18 129 0.0 3.2 0.00 0.00 0.00 75 1006.9
20260506010513 18 132 1.6 3.2 0.00 0.00 0.00 76 1007.0
20260506010032 18 210 0.0 0.0 0.00 0.00 0.00 76 1007.0
20260506005513 18 0 0.0 1.6 0.00 0.00 0.00 76 1006.9
20260506005013 18 0 0.0 4.8 0.00 0.00 0.00 76 1007.1
20260506004527 18 0 0.0 4.8 0.00 0.00 0.00 77 1006.9
20260506004012 18 120 0.0 3.2 0.00 0.00 0.00 77 1006.7
20260506003544 18 0 0.0 3.2 0.00 0.00 0.00 77 1006.7
20260506003030 18 127 0.0 1.6 0.00 0.00 0.00 76 1006.6
20260506002510 18 221 0.0 1.6 0.00 0.00 0.00 75 1006.4
20260506002013 18 127 0.0 1.6 0.00 0.00 0.00 75 1006.4
20260506001530 18 0 0.0 1.6 0.00 0.00 0.00 75 1006.3
20260506001012 18 0 0.0 1.6 0.00 0.00 0.00 74 1006.2
20260506000513 18 0 0.0 1.6 0.00 0.00 0.00 74 1006.2
20260506000029 18 131 0.0 1.6 0.00 0.00 0.00 74 1006.1
20260505235513 18 0 0.0 1.6 0.00 0.00 0.00 74 1006.0
20260505235015 18 131 0.0 1.6 0.00 0.00 0.00 74 1006.2
20260505234529 18 0 0.0 1.6 0.00 0.00 0.00 73 1006.0
20260505234012 18 0 0.0 1.6 0.00 0.00 0.00 72 1006.0
20260505233513 18 133 0.0 1.6 0.00 0.00 0.00 72 1005.8
20260505233030 18 0 0.0 1.6 0.00 0.00 0.00 72 1005.7
20260505232514 18 0 0.0 1.6 0.00 0.00 0.00 72 1005.7
20260505232011 18 0 0.0 1.6 0.00 0.00 0.00 73 1005.5
20260505231531 18 0 0.0 1.6 0.00 0.00 0.00 72 1005.5
20260505231014 18 0 0.0 1.6 0.00 0.00 0.00 71 1005.7
20260505230514 19 0 0.0 1.6 0.00 0.00 0.00 70 1005.7
20260505230041 19 359 0.0 1.6 0.00 0.00 0.00 70 1005.8
20260505225513 19 0 0.0 3.2 0.00 0.00 0.00 69 1005.9
20260505225012 19 0 0.0 3.2 0.00 0.00 0.00 69 1005.8
20260505224530 19 0 0.0 8.0 0.00 0.00 0.00 69 1005.9
20260505224011 19 0 0.0 8.0 0.00 0.00 0.00 69 1005.8
20260505223510 19 210 0.0 8.0 0.00 0.00 0.00 69 1005.7
20260505223037 19 257 1.6 8.0 0.00 0.00 0.00 69 1005.7
20260505222517 19 316 1.6 14.5 0.00 0.00 0.00 69 1005.9